Regional Weather Roundup
Issued by NWS

Home | Current Version | Previous Version | Graphics & Text | Print | Product List | Glossary On
Versions: 1 2 3 4 5 6 7 8 9 10 11 12 13 14 15 16 17 18 19 20 21 22 23 24 25 26 27 28 29 30 31 32 33 34 35 36 37 38 39 40 41 42 43 44 45 46 47 48 49 50
000
ASUS43 KBIS 270102
RWRND

NORTH DAKOTA REGIONAL WEATHER ROUNDUP
NATIONAL WEATHER SERVICE BISMARCK ND
800 PM CDT TUE JUL 26 2016

NOTE: "FAIR" INDICATES FEW OR NO CLOUDS BELOW 12,000 FEET WITH NO
SIGNIFICANT WEATHER AND/OR OBSTRUCTIONS TO VISIBILITY.


NDZ001>003-009>011-017-270200-
NORTHWEST NORTH DAKOTA

CITY           SKY/WX    TMP DP  RH WIND       PRES   REMARKS
WILLISTON      CLOUDY    78  55  44 NE10      30.06F
MINOT          CLOUDY    76  60  57 N6        30.05R
MINOT AFB      CLOUDY    74  57  55 N6        30.04S
$$

NDZ018>021-031>035-040>046-270200-
SOUTHWEST NORTH DAKOTA

CITY           SKY/WX    TMP DP  RH WIND       PRES   REMARKS
BISMARCK       CLOUDY    78  66  66 N16G24    30.00R
DICKINSON      SUNNY     73  54  51 NE10      30.05F
GARRISON         N/A     69  67  93 N9        30.04F
HETTINGER ARPT SUNNY     78  61  55 NE16      30.05F
$$

NDZ004>008-012>016-024-026-027-054-270200-
NORTHEAST NORTH DAKOTA

CITY           SKY/WX    TMP DP  RH WIND       PRES   REMARKS
GRAND FORKS    PTSUNNY   78  65  63 N13       29.97R
GRND FRKS AFB  MOSUNNY   75  65  71 N12       29.98R
DEVILS LAKE    CLOUDY    67  64  90 SE3       30.04R
$$

NDZ022-023-025-028>030-036>039-047>053-270200-
SOUTHEAST NORTH DAKOTA

CITY           SKY/WX    TMP DP  RH WIND       PRES   REMARKS
FARGO          CLOUDY    76  66  71 W12       29.94R
JAMESTOWN      LGT RAIN  71  69  93 CALM      29.99R
$$





USA.gov is the U.S. government's official web portal to all federal, state and local government web resources and services.